This demonstration page uses our WeatherBlox Daily Observations layout. Learn more.

Left ArrowRight Arrow

Hourly Observations for October 23, 2016

Temp ( °F °C ) Dew Point ( °F °C ) Humidity (%) Winds ( mph kmh ) Pressure ( in mb ) Visibility ( mi km ) Precip ( " mm )
12:16 am 00:16 Cloudy 48 9 39 4 71 71 SSW 3 6 30.09 1019 10 16 N/A
12:36 am 00:36 Mostly Cloudy 46 8 39 4 76 76 N N/A 30.12 1020 10 16 N/A
12:57 am 00:57 Partly Cloudy 46 8 39 4 76 76 N N/A 30.12 1020 10 16 N/A
1:16 am 01:16 Partly Cloudy 45 7 39 4 81 81 N N/A 30.12 1020 10 16 N/A
1:37 am 01:37 Mostly Cloudy 45 7 41 5 87 87 N N/A 30.12 1020 10 16 N/A
1:57 am 01:57 Partly Cloudy 46 8 39 4 76 76 SW 5 7 30.12 1020 10 16 N/A
2:16 am 02:16 Mostly Cloudy 48 9 39 4 71 71 SW 6 9 30.12 1020 10 16 N/A
2:37 am 02:37 Mostly Cloudy 46 8 39 4 76 76 SW 6 9 30.12 1020 10 16 N/A
2:57 am 02:57 Clear 46 8 39 4 76 76 SW 6 9 30.12 1020 10 16 N/A
3:16 am 03:16 Clear 45 7 39 4 81 81 SW 5 7 30.12 1020 10 16 N/A
3:37 am 03:37 Clear 45 7 39 4 81 81 SW 6 9 30.12 1020 10 16 N/A
3:57 am 03:57 Clear 45 7 39 4 81 81 SW 5 7 30.12 1020 10 16 N/A
4:16 am 04:16 Clear 45 7 39 4 81 81 SSW 3 6 30.12 1020 10 16 N/A
4:37 am 04:37 Clear 45 7 39 4 81 81 SSW 5 7 30.12 1020 10 16 N/A
4:57 am 04:57 Clear 45 7 39 4 81 81 SW 5 7 30.12 1020 10 16 N/A
5:16 am 05:16 Clear 45 7 39 4 81 81 SSW 5 7 30.12 1020 10 16 N/A
5:37 am 05:37 Clear 45 7 39 4 81 81 SSW 5 7 30.12 1020 10 16 N/A
5:57 am 05:57 Clear 43 6 39 4 87 87 S 3 6 30.12 1020 10 16 N/A
6:17 am 06:17 Clear 43 6 39 4 87 87 SSW 3 6 30.12 1020 10 16 N/A
6:37 am 06:37 Clear 43 6 39 4 87 87 N N/A 30.12 1020 10 16 N/A
6:56 am 06:56 Clear 43 6 39 4 87 87 S 3 6 30.12 1020 10 16 N/A
7:17 am 07:17 Clear 43 6 39 4 87 87 S 5 7 30.12 1020 10 16 N/A
7:37 am 07:37 Clear 43 6 39 4 87 87 S 3 6 30.12 1020 10 16 N/A
7:56 am 07:56 Clear 43 6 39 4 87 87 S 3 6 30.12 1020 10 16 N/A
8:17 am 08:17 Sunny 43 6 39 4 87 87 S 3 6 30.12 1020 10 16 N/A
8:37 am 08:37 Sunny 43 6 39 4 87 87 S 3 6 30.12 1020 10 16 N/A
8:56 am 08:56 Sunny 45 7 39 4 81 81 S 5 7 30.12 1020 10 16 N/A
9:17 am 09:17 Sunny 46 8 41 5 82 82 SSW 5 7 30.12 1020 10 16 N/A
9:36 am 09:36 Sunny 48 9 41 5 76 76 SSW 8 13 30.12 1020 10 16 N/A
9:57 am 09:57 Sunny 50 10 43 6 76 76 SSW 7 11 30.12 1020 10 16 N/A
10:17 am 10:17 Sunny 52 11 43 6 72 72 SW 8 13 30.12 1020 10 16 N/A
10:36 am 10:36 Sunny 55 13 45 7 67 67 SSW 10 17 30.06 1018 10 16 N/A
10:57 am 10:57 Sunny 57 14 45 7 63 63 SSW 10 17 30.06 1018 10 16 N/A
11:16 am 11:16 Sunny 59 15 46 8 63 63 SSW 9 15 30.06 1018 10 16 N/A
11:36 am 11:36 Sunny 61 16 46 8 59 59 SSW 9 15 30.06 1018 10 16 N/A
11:57 am 11:57 Sunny 61 16 46 8 59 59 SSW 9 15 30.06 1018 10 16 N/A
12:16 pm 12:16 Sunny 63 17 46 8 56 56 SW 10 17 30.06 1018 10 16 N/A
12:37 pm 12:37 Sunny 64 18 46 8 52 52 SW 12 19 30.06 1018 10 16 N/A
12:57 pm 12:57 Sunny 64 18 48 9 56 56 SSW 13 20 30.03 1017 10 16 N/A
1:16 pm 13:16 Sunny 66 19 48 9 52 52 SSW 15 24 30.03 1017 10 16 N/A
1:37 pm 13:37 Sunny 68 20 50 10 53 53 SSW 13 20 30.03 1017 10 16 N/A
1:57 pm 13:57 Sunny 68 20 50 10 53 53 SW 18 30 30.00 1016 10 16 N/A
2:16 pm 14:16 Sunny 70 21 50 10 50 50 SW 12 19 29.97 1015 10 16 N/A
2:37 pm 14:37 Sunny 70 21 50 10 50 50 SW 12 19 29.97 1015 10 16 N/A
2:57 pm 14:57 Sunny 72 22 50 10 47 47 SSW 17 28 29.97 1015 10 16 N/A
3:16 pm 15:16 Sunny 72 22 50 10 47 47 SW 14 22 29.94 1014 10 16 N/A
3:37 pm 15:37 Sunny 72 22 50 10 47 47 SW 16 26 29.94 1014 10 16 N/A
3:56 pm 15:56 Sunny 72 22 50 10 47 47 SW 18 30 29.94 1014 10 16 N/A
4:17 pm 16:17 Sunny 72 22 50 10 47 47 SW 20 31 29.94 1014 10 16 N/A
4:37 pm 16:37 Sunny 72 22 48 9 44 44 SW 22 35 29.91 1013 10 16 N/A
4:56 pm 16:56 Sunny 72 22 50 10 47 47 WSW 14 22 29.94 1014 10 16 N/A
5:17 pm 17:17 Sunny 72 22 50 10 47 47 WSW 22 35 29.94 1014 10 16 N/A
5:37 pm 17:37 Sunny 72 22 50 10 47 47 WSW 17 28 29.94 1014 10 16 N/A
5:56 pm 17:56 Sunny 70 21 50 10 50 50 WSW 16 26 29.94 1014 10 16 N/A
6:17 pm 18:17 Sunny 70 21 50 10 50 50 SW 14 22 29.94 1014 10 16 N/A
6:37 pm 18:37 Sunny 68 20 50 10 53 53 SW 14 22 29.97 1015 10 16 N/A
6:56 pm 18:56 Clear 68 20 50 10 53 53 SW 12 19 29.97 1015 10 16 N/A
7:17 pm 19:17 Clear 66 19 50 10 56 56 SW 12 19 29.97 1015 10 16 N/A
7:37 pm 19:37 Clear 66 19 50 10 56 56 WSW 13 20 29.97 1015 10 16 N/A
7:56 pm 19:56 Clear 66 19 50 10 56 56 SW 12 19 29.97 1015 10 16 N/A
8:17 pm 20:17 Clear 64 18 50 10 60 60 WSW 14 22 30.00 1016 10 16 N/A
8:37 pm 20:37 Clear 64 18 50 10 60 60 WSW 14 22 30.00 1016 10 16 N/A
8:56 pm 20:56 Clear 64 18 50 10 60 60 WSW 14 22 30.00 1016 10 16 N/A
9:17 pm 21:17 Clear 64 18 48 9 56 56 WSW 15 24 30.00 1016 10 16 N/A
9:37 pm 21:37 Clear 64 18 48 9 56 56 WSW 13 20 30.00 1016 10 16 N/A
9:56 pm 21:56 Clear 63 17 48 9 59 59 WSW 10 17 30.00 1016 10 16 N/A
10:17 pm 22:17 Clear 63 17 48 9 59 59 W 10 17 30.03 1017 10 16 N/A
10:37 pm 22:37 Clear 61 16 48 9 63 63 W 12 19 30.03 1017 10 16 N/A
10:56 pm 22:56 Clear 61 16 48 9 63 63 W 12 19 30.03 1017 10 16 N/A
11:17 pm 23:17 Clear 61 16 48 9 63 63 W 9 15 30.03 1017 10 16 N/A
11:37 pm 23:37 Clear 59 15 48 9 68 68 W 9 15 30.06 1018 10 16 N/A
11:57 pm 23:57 Clear 57 14 48 9 72 72 W 9 15 30.06 1018 10 16 N/A

Powered by AerisWeather